• In Netherlands
  • List of Countries
  • For 7 days
  • Water Temperature
  • Satellite Maps
  • Weather Map
  • Weather Widgets
  • user-avatar
    Login

    Hourly Weather Helyulya

    Today, 22 July, Sunday

    Time Temperature Precipitation Wind Pressure Humidity
    00:00 +20°C° 0.1 mm 4 mps 751 mmHg 96%
    01:00 +20°C° 0.1 mm 4 mps 751 mmHg 97%
    02:00 +20°C° 0 mm 3 mps 750 mmHg 99%
    03:00 +20°C° 0.1 mm 3 mps 751 mmHg 98%
    04:00 +20°C° 0.1 mm 3 mps 751 mmHg 98%
    05:00 +20°C° 0.1 mm 2 mps 751 mmHg 98%
    06:00 +20°C° 0 mm 2 mps 751 mmHg 95%
    07:00 +21°C° 0 mm 2 mps 752 mmHg 93%
    08:00 +23°C° 0 mm 2 mps 752 mmHg 91%
    09:00 +24°C° 0.1 mm 3 mps 752 mmHg 85%
    10:00 +25°C° 0.1 mm 3 mps 752 mmHg 79%
    11:00 +25°C° 0.1 mm 3 mps 752 mmHg 73%
    12:00 +26°C° 0.1 mm 3 mps 752 mmHg 70%
    13:00 +27°C° 0.1 mm 4 mps 752 mmHg 67%
    14:00 +27°C° 0 mm 4 mps 753 mmHg 69%
    15:00 +26°C° 0.3 mm 4 mps 753 mmHg 69%
    16:00 +26°C° 0.3 mm 4 mps 753 mmHg 70%
    17:00 +26°C° 0.3 mm 4 mps 753 mmHg 71%
    18:00 +25°C° 0 mm 3 mps 753 mmHg 75%
    19:00 +24°C° 0 mm 3 mps 753 mmHg 80%
    20:00 +22°C° 0 mm 3 mps 753 mmHg 84%
    21:00 +21°C° 0 mm 2 mps 753 mmHg 88%
    22:00 +20°C° 0 mm 2 mps 753 mmHg 91%
    23:00 +19°C° 0 mm 2 mps 754 mmHg 95%

    Tomorrow, 23 July, Monday

    Time Temperature Precipitation Wind Pressure Humidity
    00:00 +19°C° 0 mm 2 mps 754 mmHg 95%
    01:00 +19°C° 0 mm 2 mps 754 mmHg 95%
    02:00 +20°C° 0 mm 1 mps 754 mmHg 95%
    03:00 +20°C° 0 mm 1 mps 754 mmHg 94%
    04:00 +20°C° 0 mm 1 mps 754 mmHg 93%
    05:00 +20°C° 0 mm 1 mps 754 mmHg 92%
    06:00 +21°C° 0 mm 2 mps 754 mmHg 86%
    07:00 +23°C° 0 mm 2 mps 755 mmHg 80%
    08:00 +24°C° 0 mm 2 mps 755 mmHg 74%
    09:00 +25°C° 0.1 mm 2 mps 755 mmHg 69%
    10:00 +26°C° 0.1 mm 2 mps 755 mmHg 64%
    11:00 +27°C° 0.1 mm 3 mps 755 mmHg 60%
    12:00 +27°C° 0.1 mm 3 mps 755 mmHg 58%
    13:00 +28°C° 0.1 mm 3 mps 755 mmHg 56%
    14:00 +28°C° 0.1 mm 3 mps 755 mmHg 54%
    15:00 +28°C° 0 mm 2 mps 755 mmHg 56%
    16:00 +27°C° 0 mm 2 mps 755 mmHg 57%
    17:00 +27°C° 0 mm 2 mps 755 mmHg 59%
    18:00 +26°C° 0 mm 2 mps 755 mmHg 67%
    19:00 +24°C° 0 mm 2 mps 755 mmHg 75%
    20:00 +23°C° 0 mm 1 mps 755 mmHg 82%
    21:00 +22°C° 0 mm 1 mps 756 mmHg 86%
    22:00 +21°C° 0 mm 1 mps 756 mmHg 91%
    23:00 +20°C° 0 mm 1 mps 756 mmHg 95%

    Day after tomorrow, 24 July, Tuesday

    Time Temperature Precipitation Wind Pressure Humidity
    00:00 +20°C° 0 mm 1 mps 756 mmHg 95%
    01:00 +19°C° 0 mm 1 mps 756 mmHg 95%
    02:00 +19°C° 0 mm 1 mps 756 mmHg 95%
    03:00 +19°C° 0.1 mm 1 mps 756 mmHg 93%
    04:00 +20°C° 0.1 mm 1 mps 757 mmHg 92%
    05:00 +20°C° 0.1 mm 1 mps 757 mmHg 90%
    06:00 +21°C° 0.2 mm 2 mps 757 mmHg 84%
    07:00 +23°C° 0.2 mm 2 mps 757 mmHg 78%
    08:00 +25°C° 0.2 mm 2 mps 757 mmHg 72%
    09:00 +25°C° 0.8 mm 2 mps 757 mmHg 73%
    10:00 +26°C° 0.8 mm 3 mps 757 mmHg 73%
    11:00 +26°C° 0.8 mm 3 mps 758 mmHg 73%
    12:00 +26°C° 0.4 mm 3 mps 757 mmHg 69%
    13:00 +27°C° 0.4 mm 3 mps 757 mmHg 65%
    14:00 +27°C° 0.4 mm 3 mps 757 mmHg 61%
    15:00 +27°C° 0 mm 3 mps 757 mmHg 59%
    16:00 +27°C° 0 mm 2 mps 757 mmHg 56%
    17:00 +27°C° 0 mm 2 mps 757 mmHg 54%
    18:00 +26°C° 0 mm 2 mps 758 mmHg 60%
    19:00 +24°C° 0 mm 2 mps 758 mmHg 65%
    20:00 +23°C° 0 mm 1 mps 758 mmHg 71%
    21:00 +22°C° 0 mm 1 mps 758 mmHg 73%
    22:00 +20°C° 0 mm 2 mps 758 mmHg 76%
    23:00 +19°C° 0 mm 2 mps 759 mmHg 78%

    25 July, Wednesday

    Time Temperature Precipitation Wind Pressure Humidity
    00:00 +19°C° 0 mm 2 mps 759 mmHg 80%
    01:00 +18°C° 0 mm 2 mps 759 mmHg 83%
    02:00 +19°C° 0 mm 1 mps 759 mmHg 86%
    03:00 +18°C° 0 mm 2 mps 759 mmHg 86%
    04:00 +19°C° 0 mm 2 mps 759 mmHg 85%
    05:00 +19°C° 0 mm 2 mps 759 mmHg 85%
    06:00 +20°C° 0 mm 2 mps 760 mmHg 79%
    07:00 +23°C° 0 mm 2 mps 760 mmHg 73%
    08:00 +24°C° 0 mm 2 mps 760 mmHg 67%
    09:00 +25°C° 0 mm 2 mps 760 mmHg 64%
    10:00 +26°C° 0 mm 2 mps 760 mmHg 60%
    11:00 +27°C° 0 mm 2 mps 760 mmHg 57%
    12:00 +27°C° 0.2 mm 2 mps 759 mmHg 58%
    13:00 +28°C° 0.2 mm 2 mps 759 mmHg 58%
    14:00 +28°C° 0.2 mm 2 mps 759 mmHg 58%
    15:00 +28°C° 0.2 mm 2 mps 759 mmHg 60%
    16:00 +27°C° 0.2 mm 2 mps 759 mmHg 61%
    17:00 +27°C° 0.2 mm 1 mps 759 mmHg 62%
    18:00 +26°C° 0.1 mm 1 mps 759 mmHg 68%
    19:00 +25°C° 0.1 mm 1 mps 759 mmHg 74%
    20:00 +24°C° 0.1 mm 1 mps 759 mmHg 80%
    21:00 +23°C° 0 mm 1 mps 759 mmHg 83%
    22:00 +21°C° 0 mm 2 mps 760 mmHg 86%
    23:00 +20°C° 0 mm 2 mps 760 mmHg 89%

    26 July, Thursday

    Time Temperature Precipitation Wind Pressure Humidity
    00:00 +20°C° 0 mm 2 mps 760 mmHg 91%
    01:00 +19°C° 0 mm 2 mps 760 mmHg 93%
    02:00 +19°C° 0 mm 2 mps 760 mmHg 95%
    03:00 +19°C° 0 mm 2 mps 761 mmHg 95%
    04:00 +20°C° 0 mm 2 mps 761 mmHg 95%
    05:00 +20°C° 0 mm 2 mps 761 mmHg 95%
    06:00 +21°C° 0 mm 2 mps 761 mmHg 87%
    07:00 +22°C° 0 mm 3 mps 761 mmHg 80%
    08:00 +24°C° 0 mm 3 mps 761 mmHg 73%
    09:00 +25°C° 0 mm 3 mps 761 mmHg 65%
    10:00 +26°C° 0 mm 3 mps 761 mmHg 57%
    11:00 +27°C° 0 mm 2 mps 761 mmHg 50%
    12:00 +28°C° 0 mm 2 mps 761 mmHg 48%
    13:00 +29°C° 0 mm 2 mps 761 mmHg 45%
    14:00 +29°C° 0 mm 2 mps 761 mmHg 43%
    15:00 +29°C° 0 mm 2 mps 761 mmHg 44%
    16:00 +29°C° 0 mm 2 mps 761 mmHg 45%
    17:00 +29°C° 0 mm 1 mps 761 mmHg 46%
    18:00 +27°C° 0 mm 1 mps 761 mmHg 52%
    19:00 +26°C° 0 mm 1 mps 761 mmHg 58%
    20:00 +25°C° 0 mm 2 mps 761 mmHg 64%
    21:00 +24°C° 0 mm 2 mps 761 mmHg 67%
    22:00 +23°C° 0 mm 2 mps 761 mmHg 69%
    23:00 +21°C° 0 mm 3 mps 761 mmHg 72%

    27 July, Friday

    Time Temperature Precipitation Wind Pressure Humidity
    00:00 +21°C° 0 mm 3 mps 761 mmHg 74%
    01:00 +20°C° 0 mm 3 mps 761 mmHg 77%
    02:00 +20°C° 0 mm 3 mps 761 mmHg 79%
    03:00 +20°C° 0 mm 2 mps 761 mmHg 79%
    04:00 +20°C° 0 mm 2 mps 761 mmHg 78%
    05:00 +20°C° 0 mm 2 mps 761 mmHg 78%
    06:00 +23°C° 0 mm 2 mps 762 mmHg 73%
    07:00 +25°C° 0 mm 2 mps 762 mmHg 68%
    08:00 +26°C° 0 mm 3 mps 762 mmHg 63%
    09:00 +27°C° 0 mm 3 mps 762 mmHg 59%
    10:00 +29°C° 0 mm 3 mps 762 mmHg 55%
    11:00 +30°C° 0 mm 4 mps 762 mmHg 51%
    12:00 +30°C° 0 mm 3 mps 762 mmHg 49%
    13:00 +31°C° 0 mm 3 mps 762 mmHg 48%
    14:00 +31°C° 0 mm 3 mps 762 mmHg 46%
    15:00 +31°C° 0 mm 3 mps 762 mmHg 47%
    16:00 +31°C° 0 mm 3 mps 762 mmHg 47%
    17:00 +30°C° 0 mm 2 mps 762 mmHg 48%
    18:00 +29°C° 0.1 mm 2 mps 762 mmHg 55%
    19:00 +27°C° 0.1 mm 1 mps 762 mmHg 62%
    20:00 +25°C° 0.1 mm 1 mps 762 mmHg 69%
    21:00 +25°C° 0.3 mm 1 mps 762 mmHg 72%
    22:00 +24°C° 0.3 mm 2 mps 762 mmHg 75%
    23:00 +23°C° 0.3 mm 2 mps 762 mmHg 79%
    Show more